{"data":{"norad_id":66090,"intl_designator":"2025-236E","name":"STARLINK-35570","alt_names":[],"object_type":"PAYLOAD","status":"ACTIVE","operator":null,"country":"US","launch_date":"2025-10-19","launch_site_code":"AFWTR","launch_vehicle":null,"mission":null,"orbit_class":"UNKNOWN","rcs_meters":null,"size_class":null,"mass_kg":null,"dimensions":null,"purposes":["comms"],"wikipedia_slug":null,"has_3d_model":false,"image_url":null,"decayed_at":null,"tle_current":{"epoch":"2026-09-20T12:20:51.704448Z","epoch_age_seconds":101788,"freshness":"FRESH","line1":"1 66090U 25236E   26263.51448732  .00016270  00000+0  49139-3 0  9996","line2":"2 66090  53.1592 277.4785 0001529 100.0522 260.0654 15.34413942 52797","mean_motion":15.34413942,"eccentricity":0.0001529,"inclination_deg":53.1592,"raan_deg":277.4785,"arg_perigee_deg":100.0522,"mean_anomaly_deg":260.0654,"bstar":0.00049139,"rev_number":5279,"period_min":93.846905361343,"perigee_km":461.61584382191,"apogee_km":463.70776009555,"semimajor_km":6840.7988019587,"source":"CELESTRAK","updated_at":"2026-09-21T09:00:35.800950Z"}}}